Gator Classic OLR - 2/11 Toss 23

Station: Wrigley Field - T Race

Distance: 32.293 Miles    

Release: 11-Feb-2024 09:15

Weather Release:    Arrival:

Wind at Release:     Wind at Arrival:

Temp at Release: °    Temp at Arrival: °

Lofts: 91

Birds: 339

Clocked: 330

Good Luck to Everyone!
Drops Pos Breeder Pigeon Name Color Sex Team Ent Arrival Speed To Win Elg PdAOCSprint450Yrlg
1 Underground Loft - FL 0050-AU23-UGLE BB H 0 1 10:13:42.54 968.0942 00:00:00 Yes
2 Nanez Family Loft - WI 8377-AU23-NFL BB H 0 1 10:13:46.82 966.9194 00:00:04 Yes
3 Blue Thistle Ranch - OK 81976-AU23-ARPU BBSP H 0 1 10:13:49.58 966.1633 00:00:07 Yes
4 Sandoval Speed Test - CA 6640-AU23-JEDD BB C 0 1 10:13:52.06 965.4849 00:00:10 Yes
5 Bill Mitiu - FL 4178-AU23-GHC BB H 0 1 10:13:53.50 965.0914 00:00:11 Yes
6 Mosher Family Loft - IL 23102-AU23-MFL BBSP H 0 1 10:13:54.73 964.7556 00:00:12 Yes
7 Messi Loft 2 - FL 1437-AU23-TCPC BB H 0 1 10:13:58.08 963.8421 00:00:16 Yes
8 Lordship Loft - CT 0083-IF23-LORD BC H 0 1 10:13:58.86 963.6297 00:00:16 Yes
9 Xiao F Jiang - FL 48723-AU23-ARPU BC H 0 1 10:13:59.98 963.3248 00:00:17 Yes
10 Big MileStones - NY 0147-AU23-QUAD AMBUSH PREDATOR BC H 0 1 10:14:13.58 959.6381 00:00:31 Yes
11 Sal Lama - FL 3806-AU23-GHC GRIZ H 0 1 10:14:15.94 959.0012 00:00:33 Yes
12 Cordova Lofts - UT 17664-AU23-JEDD Trademark Registered BC H 0 1 10:14:16.29 958.9068 00:00:34 Yes
13 King James - CA 5786-AU23-VITA Game Dog J.A BB H 0 1 10:14:29.96 955.2350 00:00:47 Yes
14 Masland Loft - PA 0559-IF23-HBG SILV H 0 1 10:14:30.28 955.1493 00:00:48 Yes
15 Lcc Loft - TN 0966-AU23-NASH BB H 0 1 10:14:30.63 955.0557 00:00:48 Yes
16 Jones Family Loft - TX 3562-AU23-JFL BCSP H 0 1 10:14:33.02 954.4169 00:00:50 Yes
17 Lcc Loft - TN 0967-AU23-NASH BB H 0 2 10:14:34.01 954.1525 00:00:51 Yes
18 Big Boy Loft - FL 1390-AU23-POLK GRIZ H 0 1 10:14:34.02 954.1498 00:00:51 Yes
19 HonakerStutz lofts - OK 99941-AU23-ARPU BB H 0 1 10:14:35.67 953.7095 00:00:53 Yes
20 Sooner Challenge - OK 0187-AU23-SOON 1623FLYD X 1474670 BB H 0 1 10:14:36.10 953.5949 00:00:54 Yes
21 1 Qh Loft - FL 35450-AU23-ARPU BB H 0 1 10:14:36.38 953.5202 00:00:54 Yes
22 Mosher Family Loft - IL 23091-AU23-MFL BB H 0 2 10:14:36.83 953.4003 00:00:54 Yes
23 Runway 27 - FL 6745-AU23-LCF BC H 0 1 10:14:39.64 952.6518 00:00:57 Lost
24 Wing And A Prayer Loft - NY 2971-AU23-GBRC Rain Drop DC H 0 1 10:14:40.04 952.5454 00:00:57 Yes
25 123 Bird Love to Fly Loft - CA 0105-IF23-BLTF BBWF H 0 1 10:14:40.92 952.3113 00:00:58 Yes
26 Goldstar Lofts Of Illinois - IL 4379-AU23-STAR Chad & Jace Star 4379 BC H 0 1 10:14:44.56 951.3443 00:01:02 Yes
27 Junior Juanich - CA 0604-AU23-JRL PIED H 0 1 10:14:45.05 951.2142 00:01:03 Yes
28 Cloux Loft - CO 12774-AU23-AA BC H 0 1 10:14:45.38 951.1267 00:01:03 Yes
29 Masland Loft - PA 0547-IF23-HBG BBSP H 0 2 10:14:47.72 950.5063 00:01:05 Yes
30 1 Qh Loft - FL 35078-AU23-ARPU BC C 0 2 10:14:49.36 950.0721 00:01:07 Yes
31 Big MileStones - NY 0150-AU23-QUAD DEATH ROLL BC H 0 2 10:14:55.42 948.4707 00:01:13 Yes
32 M M Rayas Loft - MS 93152-AU23-ARPU BB H 0 1 10:15:03.07 946.4569 00:01:21 Yes
33 Wartick Family Loft - KS 18145-AU23-ARPU BBSP H 0 1 10:15:24.53 940.8532 00:01:42 Yes
34 Blue Angel Classic - FL 3907-AU23-TEX SILV H 0 1 10:15:40.67 936.6822 00:01:58 Yes
35 Wing And A Prayer Loft - NY 2938-AU23-GBRC Speed Trap BBSP H 0 2 10:15:48.68 934.6258 00:02:06 Yes
36 Redtex - TX 0010-AU23-REDT she's a 10 BB H 0 1 10:15:52.89 933.5487 00:02:10 Yes
37 Big MileStones - NY 0174-AU23-BML Nandor The Barbarian BC H 0 3 10:16:12.48 928.5689 00:02:30 Yes
38 Frakes Family Loft - IN 0496-AU23-FRAK BC H 0 1 10:16:12.57 928.5461 00:02:30 Yes
39 Lindbergh Flyers - MO 3699-AU23-NERP BB H 0 1 10:16:19.30 926.8477 00:02:37 Yes
40 Sandoval Speed Test - CA 6578-AU23-VITA BCWF H 0 2 10:16:19.39 926.8250 00:02:37 Yes
41 Lou Pendleton - CO 10768-AU23-VITA SILV H 0 1 10:16:21.74 926.2334 00:02:39 Yes
42 Dennis Terrizzi - NY 0064-IF23-DT BBWF H 0 1 10:16:22.39 926.0699 00:02:40 Lost
43 Nanez Family Loft - WI 8309-AU23-NFL BB H 0 2 10:16:26.90 924.9371 00:02:44 Yes
44 Dicksonloft - OK 2297-AU23-ARPU BBSP H 0 1 10:16:27.29 924.8393 00:02:45 Yes
45 Tradewinds Loft Fl - FL 30358-AU23-ARPU BB H 0 1 10:16:27.69 924.7390 00:02:45 Yes
46 Flapcake Loft - TN 0379-AU23-NASH CHSP H 0 1 10:16:27.70 924.7365 00:02:45 Yes
47 Andy Owen - GA 0373-AU23-OWEN BB H 0 1 10:16:28.02 924.6562 00:02:45 Yes
48 16899 Loft - TX 3834-AU23-TOP BB H 0 1 10:16:28.53 924.5284 00:02:46 Yes
49 Dion Family Loft - NY 0168-IF23-VLP BB H 0 1 10:16:30.19 924.1125 00:02:48 Yes
50 Mrg Loft - MD 0402-AU23-MRG BBWF H 0 1 10:16:32.16 923.6194 00:02:50 Yes
51 Xiao F Jiang - FL 48722-AU23-ARPU RC H 0 2 10:16:32.59 923.5118 00:02:50 Yes
52 Angelo Loft - FL 18196-AU23-AA BB H 0 1 10:16:33.07 923.3918 00:02:51 Yes
53 Wartick Family Loft - KS 18155-AU23-ARPU BB H 0 2 10:16:33.08 923.3893 00:02:51 Yes
54 Cordova Lofts - UT 17671-AU23-JEDD Zelpha b & c BB H 0 2 10:16:33.20 923.3593 00:02:51 Yes
55 Allen Family Racing - NC 0068-AU23-AFR BB H 0 1 10:16:33.31 923.3318 00:02:51 Yes
56 Runway 27 - FL 6753-AU23-LCF BB H 0 2 10:16:34.13 923.1269 00:02:52 Yes
57 Peach Classic - GA 0758-AU23-PETE Lone Ranger BC H 0 1 10:16:34.83 922.9520 00:02:52 Yes
58 Goldstar Lofts Of Illinois - IL 4380-AU23-STAR Heidi & Dave Star 4380 BCWF H 0 2 10:16:35.17 922.8670 00:02:53 Yes
59 Hollywood Lou Loft - FL 1052-AU23-HL WHT H 0 1 10:16:39.08 921.8916 00:02:57 Yes
60 Cordova Lofts - UT 0199-IF23-MCF Hit The Road - CLYD X 12 BC H 0 3 10:16:39.41 921.8093 00:02:57 Yes
61 MillerEberst - FL 10992-AU23-AA GRIZ H 0 1 10:16:39.50 921.7869 00:02:57 Yes
62 Wing And A Prayer Loft - NY 2965-AU23-GBRC Decisions... Decisions BCWF H 0 3 10:16:41.09 921.3909 00:02:59 Yes
63 Peach Classic - GA 0806-AU23-PETE Alabama BC H 0 2 10:16:41.19 921.3660 00:02:59 Yes
64 Jones Family Loft - TX 3292-AU23-JFL BC H 0 2 10:16:41.64 921.2540 00:02:59 Yes
65 Rossi Loft LLC - WI 2139-AU23-KEN BB H 0 1 10:16:42.09 921.1420 00:03:00 Yes
66 Stephen Brothers - FL 4798-AU23-GHC BB H 0 1 10:16:42.20 921.1146 00:03:00 Yes
67 VMBY Loft - CA 0062-AU23-VBMY BB H 0 1 10:16:47.70 919.7483 00:03:05 Yes
68 Lou Pendleton - CO 10769-AU23-VITA SILV H 0 2 10:16:49.45 919.3144 00:03:07 Yes
69 Hollywood Lou Loft - FL 38922-AU23-AA BB C 0 2 10:16:50.16 919.1384 00:03:08 Yes
70 Tedesco - FL 13137-AU23-GHC BBSP H 0 1 10:16:51.89 918.7100 00:03:09 Yes
71 Dunntown Loft - TX 89613-AU23-ARPU SLAT H 0 1 10:16:55.67 917.7754 00:03:13 Yes
72 BARRERA FAMILY LOFT - CA 3067-AU23-SFR Mariela Power BB H 0 1 10:16:57.01 917.4446 00:03:14 Yes
73 Dion Family Loft - NY 0158-IF23-VLP BB H 0 2 10:16:57.02 917.4421 00:03:14 Yes
74 Dion Family Loft - NY 0067-IF23-VLP BB H 0 3 10:17:03.19 915.9217 00:03:21 Yes
75 Redtex - TX 0095-AU23-REDT cyber knife BB H 0 2 10:17:15.16 912.9865 00:03:33 Yes
76 Big MileStones - NY 0172-AU23-BML Ragna Rock BC H 0 4 10:17:24.54 910.6995 00:03:42 Yes
77 M.A.B. - MD 33235-IF23-SBS BCWF H 0 1 10:17:33.38 908.5546 00:03:51 Yes
78 Jones Family Loft - TX 3426-AU23-JFL BB H 0 3 10:17:34.11 908.3779 00:03:52 Yes
79 Wartick Family Loft - KS 18154-AU23-ARPU BCWF H 0 3 10:17:40.05 906.9429 00:03:58 Yes
80 Messi Loft 2 - FL 4371-AU23-AA BC H 0 2 10:17:41.08 906.6945 00:03:59 Yes
81 Dennis Terrizzi - NY 0215-IF23-DIAM BC H 0 2 10:17:42.25 906.4126 00:04:00 Yes
82 Blue Angel Classic - FL 41646-AU23-FOYS BC H 0 2 10:17:43.21 906.1813 00:04:01 Yes
83 Sal Lama - FL 3807-AU23-GHC BC H 0 2 10:17:43.88 906.0200 00:04:01 Yes
84 Messi Loft 2 - FL 4370-AU23-AA BC H 0 3 10:17:44.50 905.8708 00:04:02 Yes
85 Shady Hills Pet Shop Loft - FL 3718-AU23-GHC BC H 0 1 10:17:45.16 905.7120 00:04:03 Yes
86 Peach Classic - GA 0833-AU23-PETE Queen of Spades BC H 0 3 10:17:45.44 905.6447 00:04:03 Yes
87 Dennis Terrizzi - NY 0223-IF23-DIAM BC H 0 3 10:17:45.89 905.5364 00:04:03 Yes
88 Power Rule - FL 23162-AU23-ARPU BB H 0 1 10:17:46.19 905.4643 00:04:04 Yes
89 Angelo Loft - FL 18195-AU23-AA BC H 0 2 10:17:46.63 905.3585 00:04:04 Yes
90 Gerald June Loft - FL 24946-AU23-AA BB H 0 1 10:17:47.34 905.1879 00:04:05 Yes
91 Power Rule - FL 23161-AU23-ARPU BB H 0 2 10:17:48.17 904.9885 00:04:06 Yes
92 Lordship Loft - CT 0015-IF23-LORD SIL H 0 2 10:17:49.18 904.7460 00:04:07 Yes
93 Jones Family Loft - TX 3133-AU23-JFL BC H 0 4 10:17:50.11 904.5228 00:04:08 Yes
94 Junior Juanich - CA 0615-AU23-JRL PIED C 0 2 10:17:50.62 904.4005 00:04:08 Yes
95 Rick Derrow - WV 10192-AU23-FOYS BB H 0 1 10:17:51.79 904.1200 00:04:09 Yes
96 Cloux Loft - CO 12797-AU23-AA SILV H 0 2 10:17:52.23 904.0145 00:04:10 Yes
97 Masland Loft - PA 0563-IF23-HBG SILV H 0 3 10:17:52.24 904.0121 00:04:10 Yes
98 PJ VILLA KING - MD 0074-IF23-WCM BB H 0 1 10:17:52.65 903.9139 00:04:10 Yes
99 Peters - GA 0861-AU23-PETE DARK VATOR BB H 0 1 10:17:53.07 903.8132 00:04:11 Yes
100 M.A.B. - MD 32155-IF23-PFSC DUNN H 0 2 10:17:53.80 903.6384 00:04:11 Yes

There are 330 bird records

Note: These Race Results are unofficial and subject to change until verified by the Race Committee and declared final.

Ship Birds to:

Becky Mazzurco

41915 Lillian Lane

Weirsdale, Fl 32195

352-553-6788

gatoroneloft@yahoo.com

Click for Forecast for 32195 from weatherUSA